Location: Fontevrault
(47.1823°N, 0.0493°E)
Time: 09:36:32
(UTC+00:00)

Okean 1-7 Rocket - Pass Details

Date: 16 June 2021
Orbit: 616 x 649 km, 82.5° (Epoch: 27 July)

Event Time Altitude Azimuth Distance (km) Brightness Sun altitude
Exits shadow 23:06:13 31° 127° (SE) 1,122 4.5 -18.4°
Maximum altitude 23:07:28 37° 91° (E) 987 4.4 -18.4°
Drops below altitude 10° 23:11:35 10° 25° (NNE) 2,018 7.0 -18.6°
Sets 23:13:55 0° 17° (NNE) 2,925 8.1 -18.7°
